Weather History for Fort Bridger AP, Fort Bridger, WY

Change the Weather History Date:

Saturday, June 7, 2014

  Actual Average (KEVW) Record (KEVW)
Temperature  
Mean Temperature 60 °F 55 °F  
Max Temperature 78 °F 68 °F 84 °F (2006)
Min Temperature 41 °F 42 °F 30 °F (2005)
Degree Days  
Heating Degree Days 6 10  
Month to date heating degree days 78  
Since 1 June heating degree days 78  
Since 1 July heating degree days 8420  
Cooling Degree Days 0 0  
Month to date cooling degree days 0  
Year to date cooling degree days 1  
Since 1 June cooling degree days 0  
Growing Degree Days 10 (Base 50)    
Moisture  
Dew Point 24 °F    
Average Humidity 29    
Maximum Humidity 71    
Minimum Humidity 7    
Precipitation  
Precipitation 0.00 in 0.04 in 0.04 in (2005)
Month to date precipitation 0.28  
Year to date precipitation 5.21  
Sea Level Pressure  
Sea Level Pressure 30.12 in    
Wind  
Wind Speed 8 mph (WNW)    
Max Wind Speed 23 mph    
Max Gust Speed 33 mph    
Visibility 10 miles    
Events      
T = Trace of Precipitation, MM = Missing Value Source: NWS Daily Summary

Daily Weather History Graph

Daily Weather History Graph

Search for Another Location

Airport:

Trip Planner

Search our weather history database for the weather conditions in past years. The results will help you decide how hot, cold, wet, or windy it might be!

Date:

Astronomy

Jun. 07, 2014 Rise Set
Actual Time 5:48 AM MDT 8:52 PM MDT
Civil Twilight 5:14 AM MDT 9:26 PM MDT
Nautical Twilight 4:32 AM MDT 10:09 PM MDT
Astronomical Twilight 3:41 AM MDT 11:00 PM MDT
Moon 3:10 PM MDT (6/7) 2:15 AM MDT (6/7)
Length of Visible Light 16h 11m
Length of Day
15h 04m
Waxing Gibbous, 68% of the Moon is Illuminated
Jun 7
Waxing Gibbous
Jun 12
Full
Jun 19
Last Quarter
Jun 27
New
Jul 5
First Quarter

Hourly Weather History & Observations

Time (MDT) Temp. Windchill Dew Point Humidity Pressure Visibility Wind Dir Wind Speed Gust Speed Precip Events Conditions
12:15 AM 54.1 °F - 18.9 °F 25% 30.12 in 10.0 mi West 6.9 mph - N/A   Clear
12:35 AM 55.4 °F - 20.5 °F 26% 30.13 in 10.0 mi West 6.9 mph - N/A   Clear
12:55 AM 54.5 °F - 21.9 °F 28% 30.13 in 10.0 mi West 6.9 mph - N/A   Clear
1:15 AM 54.3 °F - 22.1 °F 29% 30.14 in 10.0 mi West 6.9 mph - N/A   Clear
1:35 AM 57.6 °F - 23.2 °F 27% 30.14 in 10.0 mi West 3.5 mph - N/A   Clear
1:55 AM 58.3 °F - 23.7 °F 26% 30.14 in 10.0 mi West 3.5 mph - N/A   Clear
2:15 AM 58.3 °F - 24.4 °F 27% 30.14 in 10.0 mi West 3.5 mph - N/A   Clear
2:35 AM 48.2 °F - 21.4 °F 35% 30.14 in 10.0 mi SSW 8.1 mph - N/A   Clear
2:55 AM 49.3 °F - 22.1 °F 34% 30.14 in 10.0 mi West 5.8 mph - N/A   Clear
3:15 AM 54.3 °F - 22.1 °F 29% 30.14 in 10.0 mi West 6.9 mph - N/A   Clear
3:35 AM 52.0 °F - 22.1 °F 31% 30.14 in 10.0 mi West 5.8 mph - N/A   Clear
3:55 AM 55.0 °F - 21.6 °F 27% 30.14 in 10.0 mi West 4.6 mph - N/A   Clear
4:15 AM 51.6 °F - 20.8 °F 30% 30.14 in 10.0 mi West 6.9 mph - N/A   Clear
4:35 AM 52.7 °F - 21.7 °F 30% 30.13 in 10.0 mi West 5.8 mph - N/A   Clear
4:55 AM 43.7 °F 39.7 °F 20.3 °F 39% 30.13 in 10.0 mi NW 6.9 mph - N/A   Clear
5:15 AM 44.6 °F 40.7 °F 22.6 °F 42% 30.14 in 10.0 mi North 6.9 mph - N/A   Clear
5:55 AM 43.9 °F 38.8 °F 26.4 °F 50% 30.14 in 10.0 mi North 9.2 mph - N/A   Clear
6:15 AM 43.3 °F 38.1 °F 27.5 °F 54% 30.14 in 10.0 mi NNW 9.2 mph - N/A   Clear
6:35 AM 41.7 °F 36.1 °F 28.4 °F 59% 30.14 in 10.0 mi NNW 9.2 mph - N/A   Clear
6:55 AM 42.4 °F - 32.0 °F 67% 30.16 in 10.0 mi Calm Calm - N/A   Clear
7:35 AM 45.9 °F 43.6 °F 36.7 °F 70% 30.16 in 10.0 mi North 4.6 mph - N/A   Clear
7:55 AM 46.4 °F 42.9 °F 37.4 °F 71% 30.16 in 10.0 mi NNW 6.9 mph - N/A   Clear
8:15 AM 48.4 °F - 38.7 °F 69% 30.17 in 10.0 mi North 5.8 mph - N/A   Clear
8:35 AM 49.8 °F - 39.7 °F 68% 30.17 in 10.0 mi NNE 6.9 mph - N/A   Clear
8:55 AM 51.3 °F - 38.3 °F 61% 30.17 in 10.0 mi NNE 4.6 mph - N/A   Clear
9:15 AM 53.8 °F - 38.1 °F 55% 30.17 in 10.0 mi NNE 5.8 mph - N/A   Clear
9:35 AM 54.7 °F - 37.4 °F 52% 30.17 in 10.0 mi NNE 3.5 mph - N/A   Clear
9:55 AM 56.8 °F - 33.8 °F 42% 30.17 in 10.0 mi NE 5.8 mph - N/A   Clear
10:15 AM 57.9 °F - 31.3 °F 36% 30.17 in 10.0 mi ENE 3.5 mph - N/A   Clear
10:35 AM 59.5 °F - 31.6 °F 35% 30.16 in 10.0 mi North 4.6 mph - N/A   Clear
11:15 AM 61.7 °F - 31.5 °F 32% 30.16 in 10.0 mi Calm Calm - N/A   Clear
11:35 AM 63.3 °F - 31.6 °F 31% 30.16 in 10.0 mi Calm Calm - N/A   Clear
11:55 AM 65.3 °F - 31.5 °F 28% 30.16 in 10.0 mi West 4.6 mph - N/A   Clear
12:15 PM 66.0 °F - 32.0 °F 28% 30.15 in 10.0 mi NW 6.9 mph - N/A   Clear
12:35 PM 68.9 °F - 33.1 °F 27% 30.14 in 10.0 mi NW 8.1 mph - N/A   Clear
12:55 PM 70.2 °F - 32.5 °F 25% 30.14 in 10.0 mi West 10.4 mph 16.1 mph N/A   Clear
1:15 PM 73.0 °F - 30.6 °F 21% 30.12 in 10.0 mi WNW 5.8 mph 16.1 mph N/A   Clear
1:35 PM 74.1 °F - 30.4 °F 20% 30.11 in 10.0 mi NNW 9.2 mph 19.6 mph N/A   Clear
1:55 PM 77.2 °F - 25.9 °F 15% 30.11 in 10.0 mi NW 9.2 mph 20.7 mph N/A   Clear
2:15 PM 78.1 °F - 15.8 °F 10% 30.11 in 10.0 mi West 19.6 mph 27.6 mph N/A   Clear
2:35 PM 77.4 °F - 13.8 °F 9% 30.10 in 10.0 mi WNW 18.4 mph 27.6 mph N/A   Clear
2:55 PM 77.7 °F - 15.6 °F 10% 30.10 in 10.0 mi West 23.0 mph 33.4 mph N/A   Clear
3:15 PM 77.2 °F - 11.5 °F 8% 30.10 in 10.0 mi West 23.0 mph 28.8 mph N/A   Clear
3:35 PM 78.3 °F - 14.9 °F 9% 30.09 in 10.0 mi West 20.7 mph 27.6 mph N/A   Clear
3:55 PM 78.4 °F - 9.3 °F 7% 30.09 in 10.0 mi West 18.4 mph 27.6 mph N/A   Clear
4:15 PM 77.7 °F - 13.6 °F 9% 30.08 in 10.0 mi WSW 13.8 mph 26.5 mph N/A   Clear
4:35 PM 77.7 °F - 12.0 °F 8% 30.09 in 10.0 mi West 19.6 mph 27.6 mph N/A   Clear
4:55 PM 77.5 °F - 12.2 °F 8% 30.08 in 10.0 mi WNW 19.6 mph 24.2 mph N/A   Clear
5:15 PM 77.0 °F - 10.6 °F 8% 30.08 in 10.0 mi West 20.7 mph 27.6 mph N/A   Clear
5:35 PM 77.2 °F - 15.1 °F 10% 30.08 in 10.0 mi West 16.1 mph 28.8 mph N/A   Clear
5:55 PM 77.2 °F - 15.8 °F 10% 30.08 in 10.0 mi WSW 18.4 mph 26.5 mph N/A   Clear
6:15 PM 75.6 °F - 15.3 °F 10% 30.08 in 10.0 mi West 16.1 mph 27.6 mph N/A   Clear
6:40 PM 75.6 °F - 16.7 °F 11% 30.07 in 10.0 mi West 16.1 mph 27.6 mph N/A   Clear
6:55 PM 75.2 °F - 16.5 °F 11% 30.06 in 10.0 mi West 12.7 mph 23.0 mph N/A   Clear
7:15 PM 73.6 °F - 20.5 °F 14% 30.08 in 10.0 mi NW 17.3 mph 25.3 mph N/A   Clear
7:35 PM 71.2 °F - 21.2 °F 15% 30.08 in 10.0 mi NW 18.4 mph 23.0 mph N/A   Clear
7:55 PM 68.5 °F - 22.3 °F 17% 30.08 in 10.0 mi NNW 16.1 mph 19.6 mph N/A   Clear
8:15 PM 66.2 °F - 23.0 °F 19% 30.09 in 10.0 mi NW 13.8 mph - N/A   Clear
8:35 PM 64.9 °F - 22.6 °F 20% 30.09 in 10.0 mi NW 9.2 mph - N/A   Clear
8:55 PM 62.2 °F - 22.6 °F 22% 30.09 in 10.0 mi WNW 8.1 mph - N/A   Clear
9:15 PM 60.3 °F - 22.6 °F 24% 30.09 in 10.0 mi WNW 8.1 mph - N/A   Clear
9:35 PM 59.4 °F - 23.0 °F 25% 30.10 in 10.0 mi West 6.9 mph - N/A   Clear
9:55 PM 59.0 °F - 23.9 °F 26% 30.11 in 10.0 mi West 8.1 mph - N/A   Clear
10:15 PM 57.4 °F - 24.6 °F 28% 30.11 in 10.0 mi West 8.1 mph - N/A   Clear
10:35 PM 57.2 °F - 24.1 °F 28% 30.12 in 10.0 mi West 6.9 mph - N/A   Clear
10:55 PM 56.3 °F - 23.9 °F 29% 30.12 in 10.0 mi West 8.1 mph - N/A   Clear
11:15 PM 54.9 °F - 23.5 °F 30% 30.11 in 10.0 mi West 6.9 mph - N/A   Clear
11:35 PM 55.2 °F - 23.0 °F 29% 30.11 in 10.0 mi West 6.9 mph - N/A   Clear